When you browse on this site, cookies collect data to enhance your experience and personalize the content and advertising you see.
Visit our Privacy Policy to learn more. By continuing to use the site, you agree to this use of cookies and data.
  • In Hungary
  • List of Countries
  • For 7 days
  • Water Temperature
  • Satellite Maps
  • Weather Map
  • News
  • Weather Widgets
  • user-avatar
    Login

    Hourly Weather Kladovo

    Today, 19 February, Tuesday

    Time Temperature Precipitation Wind Pressure Humidity
    00:00 +7°C° 0 mm 1 mps 753 mmHg 69%
    01:00 +7°C° 0 mm 1 mps 752 mmHg 71%
    02:00 +7°C° 0 mm 1 mps 752 mmHg 73%
    03:00 +6°C° 0 mm 1 mps 752 mmHg 74%
    04:00 +6°C° 0 mm 1 mps 752 mmHg 76%
    05:00 +5°C° 0 mm 1 mps 752 mmHg 77%
    06:00 +5°C° 0 mm 1 mps 752 mmHg 78%
    07:00 +5°C° 0 mm 1 mps 752 mmHg 79%
    08:00 +5°C° 0 mm 1 mps 752 mmHg 80%
    09:00 +7°C° 0 mm 1 mps 752 mmHg 75%
    10:00 +8°C° 0 mm 1 mps 752 mmHg 70%
    11:00 +10°C° 0 mm 1 mps 752 mmHg 65%
    12:00 +11°C° 0 mm 1 mps 751 mmHg 62%
    13:00 +12°C° 0 mm 1 mps 751 mmHg 59%
    14:00 +13°C° 0 mm 1 mps 751 mmHg 56%
    15:00 +13°C° 0 mm 1 mps 750 mmHg 57%
    16:00 +13°C° 0 mm 1 mps 750 mmHg 58%
    17:00 +12°C° 0 mm 0 mps 750 mmHg 59%
    18:00 +10°C° 0 mm 0 mps 750 mmHg 64%
    19:00 +9°C° 0 mm 0 mps 750 mmHg 69%
    20:00 +8°C° 0 mm 0 mps 750 mmHg 73%
    21:00 +7°C° 0 mm 0 mps 750 mmHg 75%
    22:00 +8°C° 0 mm 1 mps 750 mmHg 77%
    23:00 +7°C° 0 mm 1 mps 750 mmHg 79%

    Tomorrow, 20 February, Wednesday

    Time Temperature Precipitation Wind Pressure Humidity
    00:00 +7°C° 0 mm 1 mps 750 mmHg 79%
    01:00 +7°C° 0 mm 1 mps 750 mmHg 80%
    02:00 +6°C° 0 mm 1 mps 750 mmHg 80%
    03:00 +6°C° 0 mm 1 mps 750 mmHg 80%
    04:00 +5°C° 0 mm 2 mps 750 mmHg 80%
    05:00 +5°C° 0 mm 2 mps 750 mmHg 80%
    06:00 +5°C° 0 mm 2 mps 750 mmHg 79%
    07:00 +4°C° 0 mm 3 mps 751 mmHg 78%
    08:00 +4°C° 0 mm 3 mps 751 mmHg 77%
    09:00 +6°C° 0 mm 4 mps 751 mmHg 70%
    10:00 +8°C° 0 mm 4 mps 751 mmHg 63%
    11:00 +10°C° 0 mm 5 mps 751 mmHg 57%
    12:00 +11°C° 0 mm 6 mps 751 mmHg 54%
    13:00 +13°C° 0 mm 6 mps 751 mmHg 51%
    14:00 +14°C° 0 mm 7 mps 751 mmHg 48%
    15:00 +13°C° 0 mm 6 mps 751 mmHg 51%
    16:00 +11°C° 0 mm 6 mps 751 mmHg 54%
    17:00 +11°C° 0 mm 6 mps 751 mmHg 57%
    18:00 +10°C° 0 mm 6 mps 751 mmHg 61%
    19:00 +8°C° 0 mm 5 mps 752 mmHg 66%
    20:00 +7°C° 0 mm 4 mps 752 mmHg 70%
    21:00 +7°C° 0 mm 4 mps 753 mmHg 68%
    22:00 +7°C° 0 mm 3 mps 753 mmHg 66%
    23:00 +7°C° 0 mm 3 mps 754 mmHg 65%

    Day after tomorrow, 21 February, Thursday

    Time Temperature Precipitation Wind Pressure Humidity
    00:00 +5°C° 0 mm 3 mps 754 mmHg 66%
    01:00 +5°C° 0 mm 3 mps 754 mmHg 68%
    02:00 +4°C° 0 mm 3 mps 754 mmHg 70%
    03:00 +4°C° 0 mm 3 mps 754 mmHg 71%
    04:00 +3°C° 0 mm 3 mps 754 mmHg 72%
    05:00 +3°C° 0 mm 3 mps 754 mmHg 73%
    06:00 +3°C° 0 mm 3 mps 754 mmHg 74%
    07:00 +3°C° 0 mm 3 mps 755 mmHg 74%
    08:00 +3°C° 0 mm 3 mps 755 mmHg 74%
    09:00 +5°C° 0 mm 3 mps 755 mmHg 67%
    10:00 +7°C° 0 mm 4 mps 755 mmHg 59%
    11:00 +10°C° 0 mm 4 mps 755 mmHg 52%
    12:00 +11°C° 0 mm 4 mps 755 mmHg 49%
    13:00 +12°C° 0 mm 5 mps 755 mmHg 46%
    14:00 +12°C° 0 mm 5 mps 755 mmHg 43%
    15:00 +12°C° 0 mm 5 mps 754 mmHg 45%
    16:00 +12°C° 0 mm 5 mps 754 mmHg 48%
    17:00 +10°C° 0 mm 5 mps 754 mmHg 50%
    18:00 +9°C° 0 mm 5 mps 754 mmHg 54%
    19:00 +8°C° 0 mm 5 mps 754 mmHg 58%
    20:00 +8°C° 0 mm 4 mps 754 mmHg 62%
    21:00 +7°C° 0 mm 4 mps 754 mmHg 64%
    22:00 +7°C° 0 mm 4 mps 754 mmHg 66%
    23:00 +7°C° 0 mm 4 mps 754 mmHg 68%

    22 February, Friday

    Time Temperature Precipitation Wind Pressure Humidity
    00:00 +7°C° 0.1 mm 4 mps 753 mmHg 71%
    01:00 +7°C° 0.1 mm 5 mps 753 mmHg 73%
    02:00 +7°C° 0.1 mm 6 mps 753 mmHg 76%
    03:00 +7°C° 0 mm 6 mps 752 mmHg 76%
    04:00 +6°C° 0 mm 7 mps 752 mmHg 76%
    05:00 +6°C° 0 mm 7 mps 751 mmHg 77%
    06:00 +6°C° 0 mm 7 mps 751 mmHg 77%
    07:00 +6°C° 0 mm 7 mps 751 mmHg 76%
    08:00 +6°C° 0 mm 7 mps 751 mmHg 76%
    09:00 +6°C° 0 mm 7 mps 751 mmHg 72%
    10:00 +8°C° 0 mm 6 mps 751 mmHg 68%
    11:00 +9°C° 0 mm 6 mps 751 mmHg 64%
    12:00 +10°C° 0 mm 7 mps 751 mmHg 59%
    13:00 +10°C° 0 mm 7 mps 750 mmHg 55%
    14:00 +11°C° 0 mm 7 mps 750 mmHg 51%
    15:00 +11°C° 0 mm 7 mps 750 mmHg 52%
    16:00 +10°C° 0 mm 7 mps 750 mmHg 53%
    17:00 +9°C° 0 mm 7 mps 751 mmHg 54%
    18:00 +8°C° 0 mm 6 mps 751 mmHg 57%
    19:00 +6°C° 0 mm 5 mps 752 mmHg 60%
    20:00 +5°C° 0 mm 4 mps 753 mmHg 64%
    21:00 +4°C° 0 mm 4 mps 754 mmHg 66%
    22:00 +3°C° 0 mm 4 mps 756 mmHg 69%
    23:00 +2°C° 0 mm 3 mps 757 mmHg 71%

    23 February, Saturday

    Time Temperature Precipitation Wind Pressure Humidity
    00:00 +1°C° 0.2 mm 3 mps 758 mmHg 76%
    01:00 -1°C° 0.2 mm 4 mps 759 mmHg 80%
    02:00 -2°C° 0.2 mm 4 mps 760 mmHg 85%
    03:00 -2°C° 0.3 mm 4 mps 761 mmHg 84%
    04:00 -3°C° 0.3 mm 4 mps 761 mmHg 83%
    05:00 -4°C° 0.3 mm 4 mps 762 mmHg 82%
    06:00 -4°C° 0.1 mm 3 mps 762 mmHg 78%
    07:00 -4°C° 0.1 mm 3 mps 762 mmHg 75%
    08:00 -3°C° 0.1 mm 2 mps 762 mmHg 71%
    09:00 -3°C° 0 mm 2 mps 763 mmHg 66%
    10:00 -2°C° 0 mm 2 mps 763 mmHg 62%
    11:00 -1°C° 0 mm 2 mps 763 mmHg 57%
    12:00 -1°C° 0 mm 2 mps 763 mmHg 55%
    13:00 +1°C° 0 mm 2 mps 762 mmHg 53%
    14:00 +2°C° 0 mm 2 mps 762 mmHg 51%
    15:00 +2°C° 0 mm 2 mps 762 mmHg 50%
    16:00 +2°C° 0 mm 2 mps 761 mmHg 49%
    17:00 +1°C° 0 mm 3 mps 761 mmHg 48%
    18:00 +2°C° 0 mm 2 mps 761 mmHg 52%
    19:00 +1°C° 0 mm 2 mps 761 mmHg 56%
    20:00 -1°C° 0 mm 2 mps 761 mmHg 59%
    21:00 -1°C° 0 mm 2 mps 761 mmHg 61%
    22:00 0°C° 0 mm 1 mps 761 mmHg 63%
    23:00 0°C° 0 mm 1 mps 761 mmHg 65%

    24 February, Sunday

    Time Temperature Precipitation Wind Pressure Humidity
    00:00 -1°C° 0 mm 0 mps 760 mmHg 65%
    01:00 -1°C° 0 mm 0 mps 760 mmHg 64%
    02:00 -1°C° 0 mm 0 mps 760 mmHg 64%
    03:00 -2°C° 0 mm 0 mps 760 mmHg 64%
    04:00 -2°C° 0 mm 0 mps 760 mmHg 63%
    05:00 -2°C° 0 mm 0 mps 760 mmHg 63%
    06:00 -2°C° 0 mm 0 mps 760 mmHg 62%
    07:00 -1°C° 0 mm 0 mps 760 mmHg 61%
    08:00 -1°C° 0 mm 0 mps 760 mmHg 60%
    09:00 +1°C° 0 mm 1 mps 760 mmHg 54%
    10:00 +2°C° 0 mm 1 mps 760 mmHg 48%
    11:00 +4°C° 0 mm 1 mps 760 mmHg 42%
    12:00 +4°C° 0 mm 2 mps 760 mmHg 41%
    13:00 +5°C° 0 mm 2 mps 760 mmHg 40%
    14:00 +6°C° 0 mm 2 mps 759 mmHg 39%
    15:00 +5°C° 0 mm 3 mps 759 mmHg 42%
    16:00 +5°C° 0 mm 3 mps 758 mmHg 46%
    17:00 +5°C° 0 mm 3 mps 758 mmHg 49%
    18:00 +4°C° 0 mm 3 mps 758 mmHg 54%
    19:00 +2°C° 0 mm 3 mps 758 mmHg 60%
    20:00 +2°C° 0 mm 2 mps 758 mmHg 66%
    21:00 +2°C° 0 mm 2 mps 757 mmHg 68%
    22:00 +1°C° 0 mm 2 mps 757 mmHg 69%
    23:00 +1°C° 0 mm 2 mps 756 mmHg 70%
    Show more